Content
SEND FEEDBACK

Daily
Averages
Monthly
Summary
United States of America

MYERSTOWN, PENNSYLVANIA


Home > North America > United States > Pennsylvania
Elevation: 480 feet     Latitude: 40 22N     Longitude: 076 18W

WEATHER
 
SELECT A DAY
Number of Records: 161,702;   Date Range: 1/3/95 - 7/26/14
 
SHARE

PRINT THIS DATA

[ ← Previous Day ]
WEATHER ALMANAC - JANUARY 31, 2013
[ Next Day → ]
[ °C ]   °F
Weather ElementAverageHighLow
Temperature42.4 °F53.6 °F (1:31 am)26.6 °F (7:45 pm)
Dewpoint33.2 °F53.6 °F (1:31 am)9.1 °F (9:55 pm)
Humidity72.4 %100 % (12:07 am)41 % (11:55 am)
Barometer29.42 in29.84 in (7:45 pm)29.11 in (3:37 am)
Wind Speed14.2 mph29.9 mph (1:55 pm)
Wind Gust43.7 mph (11:55 am)
Weather ElementAverage
Visibility7.8 mi
Wind DirectionSSW (209.5 °)

Weather ElementTotal
Precipitation0.84 in
Heating Degree Days24.9 (Base 65)
Averaged from 102 records on January 31, 2013
WEATHER CONDITIONS BREAKOUT
WIND DIRECTION BREAKOUT
WEATHER BY HOUR - JANUARY 31, 2013
[ °C ]   °F
Local TimeTemperatureDewpointHumidityBarometerVisibilityWind DirectionWind SpeedGust SpeedPrecipitationEventsConditions
12:07 AM51.8 °F51.8 °F100 %29.25 in1.0 miNNE (30°)6.9 mphRainRain
12:10 AM51.8 °F51.8 °F100 %29.25 in1.2 miNNE (20°)5.8 mphRainRain
12:11 AM51.8 °F51.8 °F100 %29.25 in1.5 miNNE (20°)5.8 mphRainRain
12:13 AM51.8 °F51.8 °F100 %29.25 in1.8 miNNE (30°)5.8 mphRainRain
12:14 AM51.8 °F51.8 °F100 %29.25 in2.0 miNNE (30°)4.6 mphRainRain
12:19 AM51.8 °F51.8 °F100 %29.25 in3.0 miNE (40°)4.6 mphRainRain
12:31 AM51.8 °F51.8 °F100 %29.23 in2.5 miNE (40°)4.6 mphRainRain
12:51 AM51.8 °F51.8 °F100 %29.19 in2.5 miNNE (30°)4.6 mphRainRain
12:53 AM51.8 °F51.8 °F100 %29.20 in3.0 miNE (40°)3.5 mphRainRain
12:55 AM52.3 °F52.2 °F99 %29.20 in3.0 miNE (40°)4.6 mph0.26 inRainLight Rain
12:58 AM51.8 °F51.8 °F100 %29.19 in2.5 miNE (40°)4.6 mphRainHeavy Rain
1:01 AM51.8 °F51.8 °F100 %29.20 in2.0 miENE (70°)3.5 mphRainHeavy Rain
1:05 AM51.8 °F51.8 °F100 %29.17 in1.8 miNNE (30°)4.6 mphRainHeavy Rain
1:08 AM51.8 °F51.8 °F100 %29.17 in1.5 miNNE (20°)3.5 mphRainHeavy Rain
1:16 AM51.8 °F51.8 °F100 %29.16 in1.8 miNE (40°)4.6 mphRainRain
1:19 AM51.8 °F51.8 °F100 %29.16 in1.8 miNNE (30°)3.5 mphRainRain
1:22 AM51.8 °F51.8 °F100 %29.16 in2.0 miNNE (20°)3.5 mphRainRain
1:31 AM53.6 °F53.6 °F100 %29.18 in3.0 miCalmRainRain
1:33 AM53.6 °F53.6 °F100 %29.17 in2.5 miCalmRainRain
1:41 AM53.6 °F53.6 °F100 %29.15 in1.8 miCalmRainHeavy Rain
1:44 AM53.6 °F53.6 °F100 %29.15 in1.8 miNW (320°)3.5 mphRainHeavy Rain
1:48 AM53.6 °F53.6 °F100 %29.14 in2.0 miCalmRainRain
1:55 AM52.7 °F52.7 °F100 %29.14 in2.5 miNorth (360°)3.5 mph0.35 inRainLight Rain
2:00 AM53.6 °F53.6 °F100 %29.14 in3.0 miCalmRainLight Rain
2:16 AM53.6 °F53.6 °F100 %29.17 in2.5 miWest (270°)6.9 mphRainHeavy Rain
2:22 AM53.6 °F53.6 °F100 %29.18 in3.0 miSW (230°)8.1 mphRainRain
2:55 AM52.9 °F52.9 °F100 %29.14 in10.0 miSW (230°)6.9 mph0.14 inRainLight Rain
3:23 AM51.8 °F51.8 °F100 %29.13 in10.0 miSouth (180°)6.9 mphRainLight Rain
3:30 AM51.8 °F51.8 °F100 %29.13 in10.0 miSouth (180°)5.8 mphRainLight Rain
3:31 AM51.8 °F51.8 °F100 %29.13 in10.0 miSouth (190°)5.8 mphMostly Cloudy
3:34 AM51.8 °F51.8 °F100 %29.13 in10.0 miSW (220°)5.8 mphRainLight Rain
3:35 AM51.8 °F51.8 °F100 %29.12 in10.0 miSW (220°)4.6 mphRainLight Rain
3:37 AM51.8 °F51.8 °F100 %29.11 in10.0 miWSW (240°)3.5 mphRainLight Rain
3:55 AM52.3 °F52.3 °F100 %29.14 in10.0 miSW (230°)8.1 mph0.02 inRainLight Rain
4:05 AM51.8 °F51.8 °F100 %29.16 in4.0 miWSW (250°)19.6 mph29.9 mphRainHeavy Rain
4:13 AM51.8 °F51.8 °F100 %29.15 in6.0 miWest (270°)17.3 mph29.9 mphRainLight Rain
4:15 AM51.8 °F51.8 °F100 %29.15 in8.0 miWest (270°)17.3 mph29.9 mphRainLight Rain
4:17 AM51.8 °F51.8 °F100 %29.15 in10.0 miWest (280°)24.2 mph29.9 mphRainLight Rain
4:21 AM51.8 °F51.8 °F100 %29.15 in10.0 miWest (270°)16.1 mph31.1 mphLight Drizzle
4:54 AM44.6 °F44.6 °F100 %29.21 in10.0 miWest (280°)19.6 mph33.4 mphMostly Cloudy
4:55 AM44.6 °F44.1 °F98 %29.21 in10.0 miWest (280°)18.4 mph33.4 mph0.06 inMostly Cloudy
5:55 AM44.2 °F33.6 °F66 %29.28 in10.0 miWest (270°)18.4 mph32.2 mphOvercast
6:01 AM44.6 °F32.0 °F61 %29.29 in10.0 miWest (280°)21.9 mph36.8 mphOvercast
6:04 AM44.6 °F32.0 °F61 %29.30 in10.0 miWest (260°)13.8 mph36.8 mphOvercast
6:06 AM44.6 °F32.0 °F61 %29.29 in10.0 miWSW (240°)24.2 mph36.8 mphOvercast
6:30 AM42.8 °F30.2 °F61 %29.33 in10.0 miWSW (250°)17.3 mph35.7 mphOvercast
6:31 AM42.8 °F30.2 °F61 %29.33 in10.0 miWSW (250°)25.3 mph36.8 mphOvercast
6:42 AM41.0 °F30.2 °F65 %29.35 in10.0 miWSW (250°)23.0 mph33.4 mphOvercast
6:55 AM41.4 °F29.7 °F63 %29.37 in10.0 miWest (270°)10.4 mph25.3 mph0.00 inOvercast
7:04 AM41.0 °F30.2 °F65 %29.37 in10.0 miWest (270°)23.0 mph34.5 mphLight Drizzle
7:13 AM41.0 °F28.4 °F61 %29.39 in10.0 miWest (280°)17.3 mph34.5 mphOvercast
7:18 AM41.0 °F28.4 °F61 %29.39 in10.0 miWest (270°)24.2 mph31.1 mphLight Drizzle
7:36 AM39.2 °F28.4 °F65 %29.41 in10.0 miWest (280°)18.4 mph28.8 mphOvercast
7:37 AM39.2 °F28.4 °F65 %29.41 in10.0 miWest (280°)23.0 mph32.2 mphLight Drizzle
7:49 AM39.2 °F28.4 °F65 %29.42 in10.0 miWest (270°)18.4 mph31.1 mphOvercast
7:55 AM38.8 °F28.0 °F65 %29.43 in10.0 miWest (270°)17.3 mph27.6 mph0.00 inOvercast
8:09 AM39.2 °F26.6 °F61 %29.44 in10.0 miWSW (250°)17.3 mph25.3 mphLight Drizzle
8:30 AM39.2 °F26.6 °F61 %29.46 in10.0 miWest (260°)17.3 mph28.8 mphOvercast
8:33 AM39.2 °F26.6 °F61 %29.46 in10.0 miWest (260°)18.4 mph28.8 mphRainLight Rain
8:48 AM39.2 °F24.8 °F56 %29.47 in10.0 miWest (270°)13.8 mph29.9 mphOvercast
8:55 AM38.3 °F25.2 °F59 %29.47 in10.0 miWest (270°)16.1 mph26.5 mph0.00 inOvercast
9:00 AM37.4 °F24.8 °F60 %29.47 in10.0 miWest (270°)23.0 mph34.5 mphRainLight Rain
9:25 AM39.2 °F24.8 °F56 %29.48 in10.0 miWest (260°)18.4 mph31.1 mphScattered Clouds
9:28 AM39.2 °F23.0 °F52 %29.48 in10.0 miWSW (250°)24.2 mph33.4 mphRainLight Rain
9:49 AM39.2 °F24.8 °F56 %29.49 in10.0 miWest (260°)27.6 mph41.4 mphMostly Cloudy
9:55 AM38.5 °F24.1 °F56 %29.49 in10.0 miWest (260°)27.6 mph36.8 mph0.00 inMostly Cloudy
10:55 AM39.0 °F19.9 °F46 %29.54 in10.0 miWest (270°)20.7 mph35.7 mphPartly Cloudy
11:09 AM37.4 °F19.4 °F48 %29.55 in10.0 miWest (270°)21.9 mph32.2 mphSnowLight Snow
11:23 AM39.2 °F19.4 °F45 %29.55 in10.0 miWest (280°)19.6 mph35.7 mphClear
11:55 AM39.7 °F17.4 °F41 %29.56 in10.0 miWest (260°)23.0 mph43.7 mph0.01 inPartly Cloudy
12:32 PM37.4 °F19.4 °F48 %29.58 in10.0 miWSW (240°)23.0 mph29.9 mphSnowLight Snow
12:51 PM37.4 °F17.6 °F45 %29.59 in10.0 miWSW (240°)28.8 mph35.7 mphMostly Cloudy
12:54 PM37.4 °F19.4 °F48 %29.60 in10.0 miWSW (240°)26.5 mph36.8 mphSnowLight Snow
12:55 PM37.8 °F18.7 °F46 %29.60 in10.0 miWSW (250°)25.3 mph36.8 mph0.00 inSnowLight Snow
1:31 PM37.4 °F17.6 °F45 %29.60 in10.0 miWest (280°)17.3 mph26.5 mphScattered Clouds
1:37 PM37.4 °F17.6 °F45 %29.60 in10.0 miWest (260°)25.3 mph35.7 mphSnowLight Snow
1:55 PM35.6 °F20.8 °F55 %29.62 in8.0 miWSW (240°)29.9 mph39.1 mph0.00 inSnowLight Snow
2:51 PM33.8 °F12.2 °F41 %29.65 in10.0 miWest (270°)18.4 mph28.8 mphMostly Cloudy
2:55 PM34.2 °F13.1 °F42 %29.66 in10.0 miWest (280°)17.3 mph28.8 mph0.00 inScattered Clouds
3:01 PM33.8 °F14.0 °F44 %29.66 in10.0 miWest (270°)20.7 mph29.9 mphSnowLight Snow
3:03 PM33.8 °F14.0 °F44 %29.66 in10.0 miWest (260°)13.8 mph29.9 mphScattered Clouds
3:06 PM33.8 °F14.0 °F44 %29.66 in10.0 miWest (260°)20.7 mph29.9 mphSnowLight Snow
3:17 PM33.8 °F14.0 °F44 %29.67 in10.0 miWest (280°)17.3 mph27.6 mphMostly Cloudy
3:18 PM33.8 °F14.0 °F44 %29.67 in10.0 miWest (280°)19.6 mph27.6 mphRainLight Rain
3:55 PM33.4 °F14.2 °F45 %29.69 in10.0 miWSW (250°)18.4 mph28.8 mph0.00 inSnowLight Snow
4:18 PM32.0 °F17.6 °F55 %29.70 in10.0 miWSW (240°)20.7 mph26.5 mphMostly Cloudy
4:55 PM32.4 °F16.0 °F51 %29.71 in10.0 miWest (260°)20.7 mph28.8 mph0.00 inMostly Cloudy
4:58 PM32.0 °F15.8 °F51 %29.71 in10.0 miWSW (250°)20.7 mph28.8 mphSnowLight Snow
5:55 PM29.5 °F22.6 °F76 %29.76 in4.0 miWest (270°)13.8 mph27.6 mph0.00 inSnowLight Snow
6:06 PM30.2 °F19.4 °F64 %29.77 in10.0 miWest (270°)10.4 mph18.4 mphMostly Cloudy
6:40 PM30.2 °F12.2 °F47 %29.79 in10.0 miWest (270°)17.3 mph27.6 mphScattered Clouds
6:55 PM30.0 °F11.8 °F47 %29.80 in10.0 miWest (280°)13.8 mph25.3 mph0.00 inMostly Cloudy
6:57 PM30.2 °F12.2 °F47 %29.81 in10.0 miWest (280°)18.4 mph31.1 mphScattered Clouds
6:58 PM30.2 °F12.2 °F47 %29.81 in10.0 miWNW (290°)21.9 mph31.1 mphScattered Clouds
7:08 PM30.2 °F12.2 °F47 %29.82 in10.0 miWNW (290°)16.1 mph27.6 mphMostly Cloudy
7:14 PM28.4 °F15.8 °F59 %29.83 in10.0 miWest (280°)19.6 mph31.1 mphMostly Cloudy
7:45 PM26.6 °F15.8 °F64 %29.84 in10.0 miWest (260°)11.5 mph21.9 mphScattered Clouds
7:55 PM27.3 °F14.5 °F59 %29.84 in10.0 miWSW (250°)13.8 mph20.7 mph0.00 inScattered Clouds
8:55 PM27.9 °F10.4 °F48 %29.84 in10.0 miWest (260°)11.5 mph24.2 mphMostly Cloudy
9:55 PM28.4 °F9.1 °F44 %29.83 in10.0 miWSW (240°)12.7 mphOvercast
10:55 PM27.5 °F11.5 °F51 %29.84 in10.0 miSW (220°)8.1 mphOvercast
11:55 PM27.3 °F11.5 °F51 %29.84 in10.0 miWSW (240°)10.4 mphMostly Cloudy
Hourly data recorded from KMUI, located miles away from Myerstown, Pennsylvania







STORIES FROM OUR PARTNERS